Regional Weather Roundup
Issued by NWS

Home | Current Version | Previous Version | Text Only | Print | Product List | Glossary Off
Versions: 1 2 3 4 5 6 7 8 9 10 11 12 13 14 15 16 17 18 19 20 21 22 23 24 25 26 27 28 29 30 31 32 33 34 35 36 37 38 39 40 41 42 43 44 45 46 47 48 49 50

000
ASUS43 KIND 211509
RWRIN

WEATHER ROUNDUP FOR INDIANA
NATIONAL WEATHER SERVICE INDIANAPOLIS IN
1000 AM EST SUN DEC 21 2014

NOTE: "FAIR" INDICATES FEW OR NO CLOUDS BELOW 12,000 FEET WITH NO
SIGNIFICANT WEATHER AND/OR OBSTRUCTIONS TO VISIBILITY.

* - STATION DOES NOT REPORT WEATHER SUCH AS PRECIPITATION OR FOG.

+ - STATION NOT QUALITY CONTROLLED BY THE NATIONAL WEATHER SERVICE.
    USE DATA WITH CAUTION...ESPECIALLY DEWPOINT AND RELATIVE
    HUMIDITY OBSERVATIONS.

INZ001>003-010>013-019-020-211600-
NORTHWEST INDIANA

CITY           SKY/WX    TMP DP  RH WIND       PRES   REMARKS
GARY /AIRPORT/ CLOUDY    34  25  69 SE9       30.24F WCI  26
KNOX *+        CLOUDY    32  24  73 S9        30.25S WCI  24
LA PORTE +     CLOUDY    33  29  87 S8        30.25S FOG     WCI  25
MICHIGAN CITY+ CLOUDY    32  23  69 S9        30.25S WCI  24
MONTICELLO +   CLOUDY    30  26  84 SE6       30.26S WCI  24
RENSSELAER +   CLOUDY    32  30  93 S8        30.26R WCI  25
VALPARAISO     CLOUDY    30  26  85 S9        30.25S FOG     WCI  22

$$

LMZ046-743>745-211600-
SOUTHERN LAKE MICHIGAN

STATION/POSITION TIME  TEMP WIND        PRES
                       AIR  DIR/SP/G
                 (UTC) (F)  (DEG/KT/KT) (MB)

$$

INZ004-005-014>016-021>024-211600-
NORTH CENTRAL INDIANA

CITY           SKY/WX    TMP DP  RH WIND       PRES   REMARKS
GOSHEN         CLOUDY    31  26  82 S8        30.27R HAZE    WCI  23
LOGANSPORT +   CLOUDY    32  27  80 S7        30.28S HAZE    WCI  26
PERU/GRISSOM   CLOUDY    30  30 100 S10       30.27S WCI  21
ROCHESTER +    CLOUDY    34  30  86 SE7       30.27S FOG     WCI  28
SOUTH BEND     CLOUDY    32  26  78 S9        30.26S HAZE    WCI  24
WARSAW +       CLOUDY    32  27  80 S3        30.27S HAZE

$$

INZ006>009-017-018-025>027-211600-
NORTHEAST INDIANA

CITY           SKY/WX    TMP DP  RH WIND       PRES   REMARKS
ANGOLA *+      CLOUDY    28  19  69 S5        30.27R WCI  23
AUBURN +       CLOUDY    32  27  80 CALM      30.29S HAZE
FORT WAYNE     CLOUDY    30  26  85 S8        30.30S FOG     WCI  22
HUNTINGTON +   CLOUDY    30  26  85 S6        30.29S FOG     WCI  24

$$

INZ028-029-035-036-043>045-051>053-211600-
WEST CENTRAL INDIANA

CITY           SKY/WX    TMP DP  RH WIND       PRES   REMARKS
GREENCASTLE +  SUNNY     28  23  80 SE5       30.28F FOG     WCI  23
LAFAYETTE      CLOUDY    30  25  81 SE5       30.28R WCI  25
TERRE HAUTE    CLOUDY    31  27  85 SE7       30.29S WCI  24

$$

INZ030>032-037>040-046>048-054>057-064-065-211600-
CENTRAL INDIANA

CITY           SKY/WX    TMP DP  RH WIND       PRES   REMARKS
CP ATTERBURY + SUNNY     28  27  93 MISG      30.31S FOG
COLUMBUS       SUNNY     28  28 100 SE6       30.31R FOG     WCI  22
FRANKFORT +    MOSUNNY   30  30 100 SE10      30.29R FOG     WCI  21
GREENWOOD *+   SUNNY     28  25  86 SE6       30.30  WCI  22
INDIANAPOLIS   PTSUNNY   27  24  89 SE8       30.28S WCI  19
-EAGLE CREEK   SUNNY     27  24  89 SE5       30.29R FOG     WCI  22
KOKOMO *+      PTSUNNY   30  25  80 S10       30.28S WCI  21
MARION +       CLOUDY    29  26  90 S8        30.30S FOG     WCI  21
MT COMFORT *+  SUNNY     28  28 100 SE5       30.29S WCI  23
SHELBYVILLE    SUNNY     30  25  81 SE6       30.29S HAZE    WCI  24
ZIONSVILLE +   SUNNY     29  25  87 S7        30.29S FOG     WCI  21

$$

INZ033-034-041-042-049-050-058-059-211600-
EAST CENTRAL INDIANA

CITY           SKY/WX    TMP DP  RH WIND       PRES   REMARKS
MUNCIE         CLOUDY    28  24  85 S6        30.30R FOG     WCI  22

$$

INZ060-061-067>069-081>083-085>088-211600-
SOUTHWEST INDIANA

CITY           SKY/WX    TMP DP  RH WIND       PRES   REMARKS
EVANSVILLE     SUNNY     31  27  85 E5        30.29S FOG     WCI  26
HUNTINGBURG *+ SUNNY     30  27  86 SE7       30.29R WCI  23
WASHINGTON +   SUNNY     30  26  86 SE6       30.28S FOG     WCI  24

$$

INZ062-063-066-070>080-084-089>092-211600-
SOUTH CENTRAL AND SOUTHEAST INDIANA

CITY           SKY/WX    TMP DP  RH WIND       PRES   REMARKS
BLOOMINGTON    SUNNY     28  26  92 E7        30.27F FOG     WCI  21

$$




USA.gov is the U.S. government's official web portal to all federal, state and local government web resources and services.